Regional Weather Roundup
Issued by NWS

Home | Current Version | Previous Version | Text Only | Print | Product List | Glossary On
Versions: 1 2 3 4 5 6 7 8 9 10 11 12 13 14 15 16 17 18 19 20 21 22 23 24 25 26 27 28 29 30 31 32 33 34 35 36 37 38 39 40 41 42 43 44 45 46 47 48 49 50
449
ASUS44 KJAN 010910
RWRMS

MISSISSIPPI HOURLY WEATHER ROUNDUP
NATIONAL WEATHER SERVICE JACKSON MS
400 AM CDT MON SEP 01 2014

NOTE: "FAIR: INDICATES FEW OR NO CLOUDS BELOW 12,000 FEET WITH NO
SIGNIFICANT WEATHER AND/OR OBSTRUCTIONS TO VISIBILITY.

MSZ001>002-007>008-010>013-018>021-025>028-034>036-011000-
NORTHWEST MISSISSIPPI

CITY           SKY/WX    TMP DP  RH WIND       PRES   REMARKS
CLARKSDALE     FAIR      75  75 100 CALM      30.01S
CLEVELAND      FAIR      76  75  99 S6        30.00S
GREENWOOD      CLEAR     74  72  93 S5        30.03R
GREENVILLE     MOCLDY    77  74  90 S6        30.01R
GRENADA        FAIR      72  72 100 SE3       30.03S
OLIVE BRANCH   PTCLDY    73 N/A N/A S6        30.02R
OXFORD         FAIR      73  72  94 CALM      30.05S
TUNICA         PTSUNNY   73  73 100 S3        30.01S
$$

MSZ003>006-009-014>017-022>024-029>033-037>039-011000-
NORTHEAST MISSISSIPPI

CITY           SKY/WX    TMP DP  RH WIND       PRES   REMARKS
BELMONT        FAIR      73  71  92 CALM      30.06S
COLUMBUS AFB   PTCLDY    73  73  98 CALM      30.05R
CORINTH        FAIR      73  72  94 SE5       30.04R FOG
GOLDN TRIANGLE PTCLDY    75  70  83 S5        30.05S
STARKVILLE     FAIR      72  70  94 CALM      30.04S
TUPELO         CLEAR     73  71  93 SW5       30.04R
$$

MSZ040-058-011000-
CENTRAL MISSISSIPPI

CITY           SKY/WX    TMP DP  RH WIND       PRES   REMARKS
JACKSON INTL   CLEAR     74  73  97 S5        30.03F
JACKSON HAWKNS CLEAR     75  72  90 S7        30.04S
MERIDIAN KEY   PTCLDY    71  70  96 CALM      30.06R
MERIDIAN NAS   PTCLDY    72  70  93 CALM      30.06S
RAYMOND        FAIR      75  72  88 SE5       30.03F
VICKSBURG      CLEAR     75  73  93 S3        30.01S
$$

MSZ059>079-011000-
SOUTH MISSISSIPPI

CITY           SKY/WX    TMP DP  RH WIND       PRES   REMARKS
BROOKHAVEN     FAIR      73  73 100 CALM      30.06S FOG
HATTIESBURG    CLEAR     73  71  93 CALM      30.05S
MCCOMB         MOCLDY    75  73  93 CALM      30.03S
NATCHEZ        CLEAR     75  72  88 SE5       30.02F
PINE BELT      CLOUDY   N/A N/A N/A CALM      30.06S VSB 1/4
$$

MSZ080>082-011000-
COASTAL MISSISSIPPI

CITY           SKY/WX    TMP DP  RH WIND       PRES   REMARKS
BILOXI         PTCLDY    83  75  75 S5        30.01F HX  91
PASCAGOULA     PTCLDY    73  72  96 N3        30.02F FOG
GULFPORT       PTCLDY    83  75  77 S8        30.00F HX  90
$$



USA.gov is the U.S. government's official web portal to all federal, state and local government web resources and services.